Погода в Злынке

Украина / Кировоградская область     48°29′27″N   31°32′15″E
темп.,
°C
ветер,
м/с
пор.,
м/с
влажн.,
%
обл.,
%
осадки,
мм/ч
давл.,
гПа
погр.,
м
20 мая, пт
пт2000:00+10сз497719 0.0 1022146
03:00+9сз357371 0.0 102267
06:00+9сз35775 0.0 102286
09:00+16сз46599 0.0 1022484
12:00+20зсз464442 0.0 10211563
15:00+22зсз564385 0.0 10192099
18:00+22з5748100 0.0 1017995
21:00+17зюз4963100 0.0 1017140
21 мая, сб
сб2100:00+16зюз4106862 0.0 1015200
03:00+13зюз4117877 0.0 1014207
06:00+13зюз512829 0.0 1013246
09:00+19з61165100 0.0 1011527
12:00+23з81152100 0.0 10101285
15:00+18з81373100 0.4 1010783
18:00+18з7158264 0.5 1009823
21:00+17зсз7148653 0.5 1009703
22 мая, вс
вс2200:00+13зсз714703 0.0 1009532
03:00+11зсз5137898 0.0 1008378
06:00+10з513845 0.0 1007462
09:00+15зсз811635 0.0 10061106
12:00+16зсз10135653 0.3 10041795
15:00+12сз81274100 0.9 10051438
18:00+10зсз71184100 0.3 10061020
21:00+10зсз61186100 0.4 1006827
23 мая, пн
пн2300:00+10сз5991100 0.1 1006578
03:00+10сз5992100 0.2 1006550
06:00+8ссз5991100 0.2 1007499
09:00+9с6880100 0.3 1008841
12:00+9ссв7979100 0.1 10101098
15:00+11ссв686466 0.1 10111201
18:00+13с565932 0.1 10111017
21:00+9с367181 0.3 1013103
24 мая, вт
вт2400:00+7с33825 0.0 101447
03:00+5с22845 0.0 101521
06:00+6сз238237 0.0 101644
09:00+13ссз45575 0.0 1016699
12:00+16с453967 0.0 10162278
15:00+17с433681 0.0 10162478
18:00+17ссв333918 0.0 10172042
21:00+11всв33600 0.0 101930